CPA431 RCKH-VHHH

Flight info

Callsign CPA431
Flight time 0h 58m
Altitude 30000
Route PARAS T7 WP521 G581 ELATO V522 ABBEY
Aircraft B77W/H-SDE1E2E3FGHIJ2J3J4J5M1RWXY/LB1D1

Departure

Time 2026-04-19 05:13
Airport Kaohsiung International Airport (RCKH)

Arrival

Time 2026-04-19 06:12
Airport Hong Kong International Airport (VHHH)
Time Latitude Longitude Altitude Speed Heading
2026-04-19 04:56 22.57264 120.34240 42 ft 0 kts 272°
2026-04-19 05:00 22.57263 120.34250 42 ft 2 kts 272°
2026-04-19 05:00 22.57263 120.34266 42 ft 2 kts 271°
2026-04-19 05:00 22.57262 120.34282 42 ft 2 kts 272°
2026-04-19 05:01 22.57262 120.34299 42 ft 2 kts 272°
2026-04-19 05:01 22.57263 120.34315 42 ft 2 kts 236°
2026-04-19 05:01 22.57274 120.34324 42 ft 2 kts 186°
2026-04-19 05:01 22.57289 120.34323 42 ft 2 kts 176°
2026-04-19 05:02 22.57304 120.34322 42 ft 2 kts 181°
2026-04-19 05:02 22.57319 120.34323 42 ft 2 kts 182°
2026-04-19 05:02 22.57334 120.34324 42 ft 2 kts 182°
2026-04-19 05:02 22.57349 120.34325 42 ft 2 kts 181°
2026-04-19 05:03 22.57364 120.34325 42 ft 2 kts 181°
2026-04-19 05:03 22.57379 120.34325 42 ft 2 kts 181°
2026-04-19 05:03 22.57394 120.34325 42 ft 2 kts 145°
2026-04-19 05:03 22.57402 120.34312 42 ft 2 kts 98°
2026-04-19 05:04 22.57402 120.34297 42 ft 2 kts 85°
2026-04-19 05:04 22.57401 120.34283 42 ft 0 kts 89°
2026-04-19 05:04 22.57401 120.34282 42 ft 0 kts 90°
2026-04-19 05:06 22.57401 120.34284 42 ft 0 kts 90°
2026-04-19 05:06 22.57401 120.34286 42 ft 1 kts 90°
2026-04-19 05:07 22.57401 120.34306 42 ft 5 kts 91°
2026-04-19 05:07 22.57399 120.34372 42 ft 11 kts 92°
2026-04-19 05:07 22.57396 120.34479 42 ft 16 kts 92°
2026-04-19 05:07 22.57406 120.34596 42 ft 12 kts 45°
2026-04-19 05:08 22.57482 120.34619 42 ft 11 kts
2026-04-19 05:08 22.57547 120.34744 42 ft 12 kts 91°
2026-04-19 05:08 22.57544 120.34847 42 ft 14 kts 92°
2026-04-19 05:09 22.57540 120.34959 42 ft 14 kts 92°
2026-04-19 05:09 22.57537 120.35074 42 ft 17 kts 92°
2026-04-19 05:09 22.57532 120.35220 42 ft 21 kts 92°
2026-04-19 05:09 22.57526 120.35397 42 ft 25 kts 92°
2026-04-19 05:10 22.57521 120.35593 42 ft 25 kts 91°
2026-04-19 05:10 22.57515 120.35775 42 ft 23 kts 92°
2026-04-19 05:10 22.57510 120.35946 42 ft 22 kts 92°
2026-04-19 05:10 22.57504 120.36108 42 ft 20 kts 91°
2026-04-19 05:11 22.57500 120.36258 42 ft 19 kts 91°
2026-04-19 05:11 22.57512 120.36388 42 ft 14 kts 45°
2026-04-19 05:11 22.57610 120.36411 42 ft 13 kts 359°
2026-04-19 05:11 22.57666 120.36358 42 ft 9 kts 274°
2026-04-19 05:12 22.57666 120.36340 42 ft 0 kts 271°
2026-04-19 05:12 22.57667 120.36305 42 ft 24 kts 271°
2026-04-19 05:12 22.57681 120.35848 42 ft 95 kts 272°
2026-04-19 05:12 22.57710 120.34910 45 ft 153 kts 271°
2026-04-19 05:13 22.57738 120.33683 494 ft 165 kts 270°
2026-04-19 05:13 22.57765 120.32378 1012 ft 183 kts 272°
2026-04-19 05:13 22.57804 120.30939 1582 ft 201 kts 273°
2026-04-19 05:13 22.57849 120.29375 2137 ft 214 kts 273°
2026-04-19 05:14 22.57897 120.27695 2608 ft 230 kts 273°
2026-04-19 05:14 22.57921 120.25925 3088 ft 246 kts 265°
2026-04-19 05:14 22.57384 120.24091 3558 ft 264 kts 238°
2026-04-19 05:14 22.56180 120.22518 4214 ft 273 kts 227°
2026-04-19 05:15 22.54848 120.21039 5027 ft 275 kts 227°
2026-04-19 05:15 22.53511 120.19544 5790 ft 278 kts 227°
2026-04-19 05:15 22.52173 120.18031 6537 ft 281 kts 227°
2026-04-19 05:15 22.50834 120.16510 7302 ft 283 kts 228°
2026-04-19 05:16 22.49460 120.14947 7998 ft 287 kts 228°
2026-04-19 05:16 22.48088 120.13389 8756 ft 289 kts 228°
2026-04-19 05:16 22.46698 120.11811 9517 ft 292 kts 228°
2026-04-19 05:16 22.45287 120.10209 10185 ft 296 kts 229°
2026-04-19 05:17 22.43826 120.08549 10558 ft 312 kts 229°
2026-04-19 05:17 22.42284 120.06778 10931 ft 329 kts 232°
2026-04-19 05:17 22.40878 120.04760 11346 ft 343 kts 237°
2026-04-19 05:17 22.39468 120.02592 11842 ft 358 kts 237°
2026-04-19 05:18 22.38018 120.00359 12515 ft 365 kts 237°
2026-04-19 05:18 22.36552 119.98109 13279 ft 370 kts 237°
2026-04-19 05:18 22.35068 119.95837 14144 ft 373 kts 238°
2026-04-19 05:18 22.33572 119.93549 15099 ft 375 kts 238°
2026-04-19 05:19 22.32064 119.91244 16049 ft 377 kts 238°
2026-04-19 05:19 22.30548 119.88927 16958 ft 380 kts 238°
2026-04-19 05:19 22.29014 119.86584 17818 ft 383 kts 238°
2026-04-19 05:19 22.27472 119.84229 18598 ft 388 kts 238°
2026-04-19 05:20 22.25906 119.81840 19336 ft 393 kts 238°
2026-04-19 05:20 22.24308 119.79401 20095 ft 398 kts 238°
2026-04-19 05:20 22.22713 119.76968 20969 ft 399 kts 239°
2026-04-19 05:20 22.21315 119.74410 21751 ft 397 kts 248°
2026-04-19 05:21 22.20334 119.71637 22430 ft 398 kts 257°
2026-04-19 05:21 22.19675 119.68733 23142 ft 400 kts 259°
2026-04-19 05:21 22.19048 119.65788 23863 ft 403 kts 259°
2026-04-19 05:21 22.18424 119.62869 24542 ft 406 kts 259°
2026-04-19 05:22 22.17781 119.59875 25327 ft 408 kts 259°
2026-04-19 05:22 22.17145 119.56923 26113 ft 410 kts 259°
2026-04-19 05:22 22.16495 119.53896 26886 ft 411 kts 260°
2026-04-19 05:22 22.16103 119.50819 27534 ft 414 kts 268°
2026-04-19 05:23 22.16000 119.47737 28164 ft 418 kts 269°
2026-04-19 05:23 22.15920 119.44569 28869 ft 421 kts 269°
2026-04-19 05:23 22.15841 119.41419 29537 ft 423 kts 269°
2026-04-19 05:23 22.15758 119.38248 29863 ft 422 kts 269°
2026-04-19 05:24 22.15675 119.35119 29913 ft 419 kts 269°
2026-04-19 05:24 22.15506 119.28851 29928 ft 415 kts 268°
2026-04-19 05:25 22.15334 119.22639 29926 ft 415 kts 268°
2026-04-19 05:25 22.15159 119.16425 29929 ft 416 kts 268°
2026-04-19 05:26 22.14987 119.10214 29937 ft 417 kts 270°
2026-04-19 05:26 22.15528 119.04005 29937 ft 414 kts 276°
2026-04-19 05:27 22.16283 118.97824 29930 ft 416 kts 276°
2026-04-19 05:27 22.17027 118.91644 29937 ft 417 kts 276°
2026-04-19 05:28 22.17764 118.85484 29925 ft 415 kts 276°
2026-04-19 05:28 22.18502 118.79283 29942 ft 417 kts 276°
2026-04-19 05:29 22.19239 118.73071 29943 ft 417 kts 276°
2026-04-19 05:29 22.19971 118.66884 29924 ft 417 kts 277°
2026-04-19 05:30 22.20718 118.60537 29926 ft 440 kts 277°
2026-04-19 05:30 22.21112 118.57177 29929 ft 455 kts 277°
2026-04-19 05:30 22.21516 118.53734 29935 ft 468 kts 277°
2026-04-19 05:31 22.22339 118.46704 29930 ft 475 kts 277°
2026-04-19 05:31 22.23168 118.39595 29925 ft 474 kts 277°
2026-04-19 05:32 22.23985 118.32569 29934 ft 474 kts 276°
2026-04-19 05:32 22.24804 118.25489 29927 ft 473 kts 276°
2026-04-19 05:33 22.25620 118.18413 29927 ft 475 kts 276°
2026-04-19 05:33 22.26437 118.11269 29951 ft 475 kts 276°
2026-04-19 05:34 22.27218 118.04155 29937 ft 474 kts 276°
2026-04-19 05:34 22.28006 117.97033 29935 ft 475 kts 277°
2026-04-19 05:35 22.28815 117.89975 29927 ft 474 kts 277°
2026-04-19 05:35 22.29634 117.82806 29955 ft 476 kts 277°
2026-04-19 05:36 22.30443 117.75684 29955 ft 473 kts 277°
2026-04-19 05:36 22.31251 117.68546 29925 ft 475 kts 277°
2026-04-19 05:37 22.32050 117.61450 29927 ft 477 kts 277°
2026-04-19 05:37 22.32847 117.54343 29934 ft 475 kts 277°
2026-04-19 05:38 22.33287 117.47164 29945 ft 477 kts 270°
2026-04-19 05:38 22.33166 117.40007 29913 ft 476 kts 269°
2026-04-19 05:39 22.33033 117.32794 29939 ft 477 kts 269°
2026-04-19 05:39 22.32900 117.25604 29933 ft 476 kts 269°
2026-04-19 05:40 22.32765 117.18444 29934 ft 478 kts 269°
2026-04-19 05:40 22.32626 117.11263 29959 ft 478 kts 269°
2026-04-19 05:41 22.32484 117.04080 29916 ft 477 kts 269°
2026-04-19 05:41 22.32340 116.96892 29947 ft 478 kts 269°
2026-04-19 05:42 22.32192 116.89701 29933 ft 479 kts 269°
2026-04-19 05:42 22.32041 116.82529 29944 ft 479 kts 269°
2026-04-19 05:43 22.31887 116.75356 29917 ft 479 kts 269°
2026-04-19 05:43 22.31728 116.68090 29910 ft 480 kts 269°
2026-04-19 05:44 22.31567 116.60863 29947 ft 479 kts 269°
2026-04-19 05:44 22.31402 116.53638 29936 ft 479 kts 269°
2026-04-19 05:45 22.31233 116.46365 29920 ft 478 kts 269°
2026-04-19 05:45 22.31063 116.39154 29901 ft 479 kts 269°
2026-04-19 05:46 22.30890 116.31992 29927 ft 480 kts 269°
2026-04-19 05:46 22.30716 116.24909 29917 ft 480 kts 269°
2026-04-19 05:47 22.30536 116.17696 29947 ft 480 kts 269°
2026-04-19 05:47 22.30351 116.10416 29938 ft 482 kts 269°
2026-04-19 05:48 22.30163 116.03152 29920 ft 480 kts 269°
2026-04-19 05:48 22.29971 115.95876 29904 ft 481 kts 269°
2026-04-19 05:48 22.29876 115.92313 29703 ft 466 kts 269°
2026-04-19 05:49 22.29782 115.88826 29154 ft 460 kts 269°
2026-04-19 05:49 22.29688 115.85375 28555 ft 455 kts 269°
2026-04-19 05:49 22.29596 115.81998 27982 ft 449 kts 269°
2026-04-19 05:49 22.29508 115.78654 27450 ft 443 kts 270°
2026-04-19 05:50 22.29421 115.75371 26922 ft 437 kts 270°
2026-04-19 05:50 22.29334 115.72089 26378 ft 432 kts 270°
2026-04-19 05:50 22.29248 115.68857 25843 ft 426 kts 270°
2026-04-19 05:50 22.29162 115.65664 25358 ft 421 kts 270°
2026-04-19 05:51 22.29078 115.62537 24818 ft 417 kts 270°
2026-04-19 05:51 22.28993 115.59435 24310 ft 412 kts 270°
2026-04-19 05:51 22.28908 115.56349 23805 ft 408 kts 270°
2026-04-19 05:51 22.28825 115.53332 23314 ft 404 kts 270°
2026-04-19 05:52 22.28741 115.50301 22811 ft 404 kts 270°
2026-04-19 05:52 22.28656 115.47271 22328 ft 405 kts 270°
2026-04-19 05:52 22.28569 115.44200 21841 ft 404 kts 270°
2026-04-19 05:52 22.28483 115.41173 21345 ft 401 kts 270°
2026-04-19 05:53 22.28397 115.38170 20849 ft 397 kts 270°
2026-04-19 05:53 22.28312 115.35208 20346 ft 393 kts 270°
2026-04-19 05:53 22.28226 115.32286 19882 ft 389 kts 270°
2026-04-19 05:53 22.28138 115.29354 19387 ft 386 kts 270°
2026-04-19 05:54 22.28050 115.26498 18910 ft 383 kts 270°
2026-04-19 05:54 22.27962 115.23621 18469 ft 382 kts 269°
2026-04-19 05:54 22.27873 115.20746 17981 ft 380 kts 269°
2026-04-19 05:54 22.27786 115.17924 17498 ft 377 kts 269°
2026-04-19 05:55 22.27698 115.15095 17063 ft 374 kts 269°
2026-04-19 05:55 22.27610 115.12315 16573 ft 371 kts 269°
2026-04-19 05:55 22.27523 115.09553 16141 ft 368 kts 269°
2026-04-19 05:55 22.27435 115.06770 15696 ft 365 kts 269°
2026-04-19 05:56 22.27349 115.04067 15215 ft 363 kts 269°
2026-04-19 05:56 22.27262 115.01346 14781 ft 359 kts 269°
2026-04-19 05:56 22.27175 114.98639 14355 ft 357 kts 269°
2026-04-19 05:56 22.27089 114.95976 13877 ft 356 kts 269°
2026-04-19 05:57 22.27002 114.93314 13430 ft 352 kts 269°
2026-04-19 05:57 22.26915 114.90644 13015 ft 348 kts 269°
2026-04-19 05:57 22.26828 114.88015 12579 ft 345 kts 269°
2026-04-19 05:57 22.26743 114.85424 12134 ft 341 kts 269°
2026-04-19 05:58 22.26658 114.82865 11707 ft 338 kts 269°
2026-04-19 05:58 22.26574 114.80331 11309 ft 335 kts 269°
2026-04-19 05:58 22.26702 114.77799 10875 ft 330 kts 282°
2026-04-19 05:58 22.27287 114.75452 10653 ft 320 kts 288°
2026-04-19 05:59 22.27955 114.73171 10479 ft 311 kts 288°
2026-04-19 05:59 22.28619 114.70943 10285 ft 303 kts 288°
2026-04-19 05:59 22.29254 114.68804 10073 ft 295 kts 288°
2026-04-19 05:59 22.29874 114.66711 9822 ft 289 kts 288°
2026-04-19 06:00 22.30480 114.64659 9585 ft 283 kts 288°
2026-04-19 06:00 22.31074 114.62648 9358 ft 277 kts 288°
2026-04-19 06:00 22.31660 114.60663 9178 ft 273 kts 288°
2026-04-19 06:00 22.32231 114.58728 8971 ft 273 kts 288°
2026-04-19 06:01 22.32806 114.56779 8723 ft 273 kts 288°
2026-04-19 06:01 22.33388 114.54806 8489 ft 270 kts 288°
2026-04-19 06:01 22.33951 114.52895 8295 ft 269 kts 288°
2026-04-19 06:01 22.34525 114.50943 8087 ft 269 kts 288°
2026-04-19 06:02 22.35088 114.49031 7882 ft 269 kts 288°
2026-04-19 06:02 22.35656 114.47099 7672 ft 268 kts 288°
2026-04-19 06:02 22.36225 114.45165 7451 ft 268 kts 288°
2026-04-19 06:02 22.36793 114.43231 7222 ft 267 kts 288°
2026-04-19 06:03 22.37347 114.41345 7020 ft 266 kts 288°
2026-04-19 06:03 22.37908 114.39434 6836 ft 266 kts 287°
2026-04-19 06:03 22.38473 114.37511 6607 ft 265 kts 287°
2026-04-19 06:03 22.39029 114.35614 6379 ft 264 kts 287°
2026-04-19 06:04 22.39583 114.33724 6171 ft 264 kts 287°
2026-04-19 06:04 22.40109 114.31833 5965 ft 264 kts 283°
2026-04-19 06:04 22.40494 114.29875 5760 ft 260 kts 280°
2026-04-19 06:04 22.40831 114.27985 5550 ft 255 kts 280°
2026-04-19 06:05 22.41166 114.26113 5372 ft 251 kts 280°
2026-04-19 06:05 22.41497 114.24282 5181 ft 247 kts 280°
2026-04-19 06:05 22.41827 114.22461 4977 ft 243 kts 280°
2026-04-19 06:05 22.42133 114.20705 4794 ft 237 kts 276°
2026-04-19 06:06 22.41979 114.18973 4597 ft 227 kts 255°
2026-04-19 06:06 22.41524 114.17382 4428 ft 218 kts 250°
2026-04-19 06:06 22.41039 114.15861 4256 ft 210 kts 250°
2026-04-19 06:06 22.40568 114.14395 4101 ft 201 kts 250°
2026-04-19 06:07 22.40114 114.12979 3957 ft 198 kts 250°
2026-04-19 06:07 22.39664 114.11575 3808 ft 197 kts 250°
2026-04-19 06:07 22.39214 114.10171 3584 ft 199 kts 250°
2026-04-19 06:07 22.38759 114.08752 3278 ft 200 kts 250°
2026-04-19 06:08 22.38310 114.07352 2982 ft 199 kts 250°
2026-04-19 06:08 22.37854 114.05922 2715 ft 197 kts 251°
2026-04-19 06:08 22.37434 114.04517 2474 ft 194 kts 251°
2026-04-19 06:08 22.37005 114.03172 2239 ft 184 kts 250°
2026-04-19 06:09 22.36587 114.01895 2017 ft 173 kts 250°
2026-04-19 06:09 22.36187 114.00666 1798 ft 172 kts 250°
2026-04-19 06:09 22.35793 113.99448 1576 ft 168 kts 251°
2026-04-19 06:09 22.35419 113.98294 1363 ft 160 kts 251°
2026-04-19 06:10 22.35054 113.97167 1156 ft 156 kts 251°
2026-04-19 06:10 22.34701 113.96075 953 ft 153 kts 251°
2026-04-19 06:10 22.34351 113.94996 751 ft 150 kts 251°
2026-04-19 06:10 22.34011 113.93944 552 ft 149 kts 251°
2026-04-19 06:11 22.33662 113.92879 347 ft 148 kts 250°
2026-04-19 06:11 22.33322 113.91839 130 ft 146 kts 251°
2026-04-19 06:11 22.32991 113.90815 38 ft 134 kts 251°
2026-04-19 06:12 22.32582 113.89632 37 ft 42 kts 229°
2026-04-19 06:12 22.32425 113.89571 37 ft 19 kts 102°
2026-04-19 06:12 22.32454 113.89703 37 ft 17 kts 71°
2026-04-19 06:12 22.32494 113.89826 37 ft 16 kts 71°
2026-04-19 06:13 22.32530 113.89940 37 ft 15 kts 71°
2026-04-19 06:13 22.32565 113.90049 37 ft 14 kts 71°
2026-04-19 06:13 22.32599 113.90153 37 ft 14 kts 71°
2026-04-19 06:13 22.32631 113.90251 37 ft 13 kts 70°
2026-04-19 06:14 22.32662 113.90346 37 ft 13 kts 71°
2026-04-19 06:14 22.32694 113.90446 37 ft 14 kts 71°
2026-04-19 06:14 22.32729 113.90554 37 ft 15 kts 71°
2026-04-19 06:14 22.32766 113.90669 37 ft 16 kts 71°
2026-04-19 06:15 22.32806 113.90794 37 ft 17 kts 71°
2026-04-19 06:15 22.32848 113.90922 37 ft 18 kts 71°
2026-04-19 06:15 22.32891 113.91056 37 ft 19 kts 71°
2026-04-19 06:15 22.32936 113.91196 37 ft 19 kts 71°
2026-04-19 06:16 22.32981 113.91338 37 ft 20 kts 71°
2026-04-19 06:16 22.33029 113.91484 37 ft 20 kts 71°
2026-04-19 06:16 22.33077 113.91635 37 ft 21 kts 71°
2026-04-19 06:16 22.33126 113.91787 37 ft 21 kts 71°
2026-04-19 06:17 22.33175 113.91946 37 ft 22 kts 71°
2026-04-19 06:17 22.33194 113.92101 37 ft 20 kts 127°
2026-04-19 06:17 22.33068 113.92168 37 ft 20 kts 161°
2026-04-19 06:17 22.32932 113.92218 37 ft 20 kts 161°
2026-04-19 06:18 22.32791 113.92271 37 ft 21 kts 161°
2026-04-19 06:18 22.32650 113.92323 37 ft 21 kts 161°
2026-04-19 06:18 22.32507 113.92378 37 ft 21 kts 160°
2026-04-19 06:18 22.32360 113.92430 37 ft 22 kts 160°
2026-04-19 06:19 22.32249 113.92518 37 ft 20 kts 91°
2026-04-19 06:19 22.32291 113.92666 37 ft 20 kts 71°
2026-04-19 06:19 22.32339 113.92815 37 ft 21 kts 71°
2026-04-19 06:19 22.32356 113.92971 37 ft 21 kts 92°
2026-04-19 06:20 22.32352 113.93133 37 ft 21 kts 92°
2026-04-19 06:20 22.32345 113.93297 37 ft 22 kts 92°
2026-04-19 06:20 22.32323 113.93443 37 ft 15 kts 133°
2026-04-19 06:20 22.32221 113.93481 37 ft 15 kts 194°
2026-04-19 06:21 22.32145 113.93397 37 ft 16 kts 238°
2026-04-19 06:21 22.32085 113.93293 37 ft 16 kts 238°
2026-04-19 06:21 22.32023 113.93185 37 ft 17 kts 234°
2026-04-19 06:21 22.31931 113.93108 37 ft 16 kts 188°
2026-04-19 06:22 22.31835 113.93131 37 ft 13 kts 161°
2026-04-19 06:22 22.31743 113.93164 37 ft 14 kts 161°
2026-04-19 06:22 22.31651 113.93191 37 ft 12 kts 163°
2026-04-19 06:22 22.31628 113.93211 37 ft 5 kts 120°
2026-04-19 06:23 22.31615 113.93243 37 ft 7 kts 112°
2026-04-19 06:23 22.31607 113.93269 37 ft 3 kts 105°
2026-04-19 06:23 22.31604 113.93282 37 ft 0 kts 105°